Terug naar catalogus

STARLINK-38056

ActiefCommunicatieSSO
NORAD 69760·PAYLOAD·🇺🇸 United States

Gelanceerd Jul 2, 2026 vanaf Vandenberg Space Force Base

Loading…

Volgende Passages (komende 24 uur)

TLE

VersSource: CelesTrak SupGP

Epoch: Sep 15, 2026, 04:09 UTC

1 69760C 26150X   26258.17340278 -.00064685  00000+0 -20094-2 0  2582
2 69760  97.2844  97.1846 0001857  89.6870 140.0295 15.33447809    14

Volg STARLINK-38056 in realtime met AllMySat

Download on the App Store